www.pogodaiklimat.ru

Погода и климат >> Архив погоды >> Кувейт >> Mitribah


ПОГОДА в Mitribah

  • Прогноз погоды в Mitribah
  • Монитор погоды в Mitribah
  • Климат города

АРХИВ ПОГОДЫ в Mitribah

Время (UTC), дата Ветер
(напр.,м/с)
 
Видим.   Явления Облачность Т
(С)
Тd
(С)
f
(%)
Тe
(С)
Тes
(С)
Комфортность P
(гПа)
Po
(гПа)
Тmin
(С)
Tmax
(С)
R
(мм)
R24
(мм)
S
(см)
00 12.12 З 7-8
{8}
20 км н/о +6.7 -3.3 49 +3 +3 1023.4 1023.0
03 12.12 З 8-10
{10}
20 км н/о +6.4 -2.9 51 +2 +2 1023.8 1024.0
06 12.12 З 12-15
{15}
5000 м дымка н/о +12.3 -3.1 34 +9 +9 1024.1 1024.0
09 12.12 З 12-16
{16}
7000 м дым н/о +19.4 -3.7 21 +18 +18 1021.2 1021.0
12 12.12 З 11-13
{16}
10 км н/о +20.3 -4.4 19 +19 +19 1019.9 1020.0
15 12.12 З 6-7
{14}
12 км н/о +13.4 -1.9 35 +12 +12 1021.1 1021.0
18 12.12 З 7-9
{14}
17 км н/о +10.7 -1.1 44 +8 +8 1022.1 1022.0
21 12.12 З 7-8
{10}
20 км н/о +9.1 -1.9 46 +6 +6 1021.5 1022.0 +5.9 +20.9
00 13.12 ЮЗ 6-7
{10}
20 км н/о +7.1 -1.6 54 +3 +3 1021.2 1021.0
03 13.12 ЮЗ 6-8
{9}
20 км н/о +6.1 -2.7 53 +2 +2 1021.1 1021.0
06 13.12 З 8-9
{9}
20 км н/о +11.9 -1.6 39 +9 +9 1021.5 1022.0
09 13.12 З 7-9
{10}
20 км н/о +19.6 -0.5 26 +19 +19 1019.2 1019.0
12 13.12 З 7-8
{10}
20 км н/о +20.8 -2.0 21 +20 +20 1017.2 1017.0
15 13.12 З 5-5
{9}
19 км н/о +13.5 -1.4 36 +12 +12 1017.9 1018.0
18 13.12 ЮЗ 3-4
{9}
20 км н/о +10.5 -0.6 46 +9 +9 1018.3 1018.0
21 13.12 ЮЗ 3-3
{5}
20 км н/о +8.0 -0.3 56 +6 +6 1017.4 1017.0 +5.2 +21.3
00 14.12 ЮЗ 4-4
{5}
20 км н/о +7.2 -0.6 58 +4 +4 1016.9 1017.0
03 14.12 Ю 4-4
{5}
20 км н/о +5.8 -2.7 54 +3 +3 1017.3 1017.0
06 14.12 Ю 4-5
{5}
20 км н/о +14.7 -2.2 31 +14 +14 1017.7 1018.0
12 14.12 В 4-7
{10}
20 км н/о +21.6 -1.8 21 +21 +21 комфорт 1013.9 1014.0
15 14.12 В 5-7
{9}
20 км н/о +14.8 +3.8 48 +13 +13 1014.7 1015.0
18 14.12 ЮВ 3-5
{9}
18 км н/о +12.3 +8.8 79 +11 +11 1014.5 1015.0
21 14.12 В 2-3
{6}
13 км н/о +8.2 +5.8 85 +6 +6 1014.0 1014.0 +5.3 +22.6
00 15.12 СЗ 2-2
{6}
19 км н/о +7.7 +4.0 77 +6 +6 1013.6 1014.0
03 15.12 Ю 2-2
{6}
10 км н/о +5.6 +3.6 87 +4 +4 1013.1 1013.0
06 15.12 ЮЗ 5-6
{7}
17 км н/о +9.4 -3.8 39 +7 +7 1014.5 1015.0
09 15.12 З 8-10
{10}
19 км н/о +15.4 -0.2 34 +14 +14 1013.2 1013.0
12 15.12 ЮЗ 3-4
{10}
15 км н/о +19.2 +6.2 43 +20 +20 1012.0 1012.0
15 15.12 СЗ 4-5
{5}
15 км н/о +14.6 +5.6 55 +13 +13 1013.7 1014.0
18 15.12 СВ 5-6
{7}
16 км н/о +9.5 +1.6 58 +7 +7 1016.4 1016.0
21 15.12 З 3-3
{5}
11 км н/о +7.0 +1.4 68 +5 +5 1017.5 1018.0 +4.7 +19.7
00 16.12 СЗ 5-6
{6}
4500 м дымка н/о +7.2 +6.8 97 +3 +3 1017.5 1018.0
03 16.12 З 6-7
{8}
5000 м дымка н/о +7.4 +6.7 95 +3 +3 1019.0 1019.0
06 16.12 З 9-11
{12}
9000 м дымка н/о +11.9 +8.2 78 +8 +8 1020.4 1020.0
09 16.12 СЗ 8-10
{11}
17 км н/о +19.1 +9.8 55 +19 +19 1018.6 1019.0
12 16.12 СВ 8-10
{11}
17 км н/о +21.7 +7.5 40 +23 +23 комфорт 1017.9 1018.0
15 16.12 С 4-4
{10}
9000 м дымка н/о +16.2 +8.5 60 +16 +16 1020.0 1020.0
18 16.12 СЗ 3-3
{10}
10 км н/о +12.8 +8.3 74 +11 +11 1022.0 1022.0
21 16.12 С 3-3
{4}
7000 м дымка н/о +11.6 +8.6 82 +10 +10 1022.2 1022.0 +6.2 +21.9
00 17.12 З 3-4
{5}
5000 м дымка н/о +9.2 +7.8 91 +7 +7 1022.9 1023.0
03 17.12 СЗ 5-6
{7}
8000 м дымка н/о +9.8 +5.4 74 +7 +7 1024.0 1024.0
06 17.12 З 4-5
{7}
9000 м дымка н/о +14.1 +6.0 58 +13 +13 1024.9 1025.0
09 17.12 З 5-7
{7}
16 км н/о +22.1 +5.2 33 +22 +22 комфорт 1023.0 1023.0
12 17.12 З 6-8
{8}
18 км н/о +22.0 +4.5 32 +22 +22 комфорт 1021.8 1022.0
15 17.12 З 4-5
{7}
16 км н/о +16.1 +4.8 47 +15 +15 1022.9 1023.0
18 17.12 З 4-5
{7}
15 км н/о +13.2 +4.7 56 +12 +12 1023.8 1024.0
21 17.12 З 5-6
{6}
14 км н/о +11.4 +3.8 60 +9 +9 1024.5 1025.0 +8.9 +23.0
00 18.12 З 5-5
{6}
14 км н/о +9.9 +2.9 62 +7 +7 1024.8 1025.0
03 18.12 З 6-6
{6}
14 км н/о +8.7 +2.3 64 +5 +5 1025.3 1025.0
06 18.12 ЮЗ 4-5
{6}
18 км н/о +13.9 +2.3 45 +13 +13 1027.0 1027.0
09 18.12 З 6-8
{8}
18 км н/о +21.5 +0.8 25 +21 +21 комфорт 1024.8 1025.0
12 18.12 З 5-7
{8}
19 км н/о +22.3 +0.1 23 +22 +22 комфорт 1023.3 1023.0
15 18.12 З 4-4
{9}
20 км н/о +14.9 +0.9 39 +14 +14 1024.9 1025.0
18 18.12 З 4-4
{9}
20 км н/о +11.9 +0.9 47 +10 +10 1025.9 1026.0
21 18.12 ЮЗ 5-5
{5}
20 км н/о +9.8 +0.3 52 +7 +7 1025.3 1025.0 +7.5 +23.1

 

Местоположение метеостанции Mitribah (Кувейт): широта 29.82 долгота 47.37 высота над уровнем моря 119 м.

В архиве по умолчанию представлена погода в Mitribah за последнюю неделю. Архивные данные за месяц целиком и за предыдущие месяцы, начиная с января 2011 года, Вы можете получить, выбрав интересующий диапазон дат из раскрывающегося списка и нажав кнопку "Ввод!".

Внимание! Время в таблицах - всемирное. Для получения местного времени необходимо прибавить поправку, которая в Mitribah равна 3 ч.

Смотрите также архив погоды в соседних городах и на ближайших метеорологических станциях:

Погода в Jal Aliyah (Кувейт) (31 км)
Погода в Abdaly (Кувейт) (43 км)
Погода в Sabriyah (Кувейт) (47 км)
Погода в Jahra (Кувейт) (63 км)
Погода в Abraque Al Habari (Кувейт) (68 км)
Погода в Sulaibiya (Кувейт) (70 км)
Погода в Experimental Farm (Кувейт) (81 км)
Погода в Minagish (Кувейт) (85 км)
Погода в Kuwait City (Кувейт) (85 км)
Погода в Basrah Airport (Ирак) (87 км)

Пояснения к столбцам:

Ветер - указаны скорость ветра в м/с - средняя за 10 мин, порывы в срок и между сроками (в фигурных скобках) и направление, откуда дует ветер: С - северный, СВ - северо-восточный, В - восточный, ЮВ - юго-восточный, Ю - южный, ЮЗ - юго-западный, З - западный, СЗ - северо-западный.
Видимость - горизонтальная дальность видимости в метрах или километрах. При видимости от 1 до 10 км при отсутствии осадков обычно наблюдается дымка, при ухудшении видимости до 1 км и менее - туман. В сухую погоду видимость может ухудшаться дымом, пылью или мглою.
Явления - указаны атмосферные явления, наблюдавшиеся в срок или в последний час перед сроком; фигурными скобками обозначены явления, наблюдавшиеся между сроками (за 1-3 часа до срока); квадратными скобками обозначены град или гололедные отложения с указанием их диаметра в мм.
Облачность - указаны через наклонную черту общая и нижняя облачность в баллах и высота нижней границы облаков в метрах; квадратными скобками обозначены формы облаков: Ci - перистые, Cs - перисто-слоистые, Cc - перисто-кучевые, Ac - высококучевые, As - высокослоистые, Sc - слоисто-кучевые, Ns - слоисто-дождевые, Cu - кучевые, Cb - кучево-дождевые. Подробнее классификацию облаков см. в Атласе облаков (PDF).
T - Температура воздуха - температура, измеренная на высоте 2 м над землей.
Td - Температура точки росы - температура, при понижении до которой содержащийся в воздухе водяной пар достигнет насыщения.
f - Относительная влажность воздуха - влажноcть воздуха, измеренная на высоте 2 м над землей.
Te - Эффективная температура - температура, которую ощущает одетый по сезону человек в тени. Характеристика душности погоды. При расчете учитывается влияние влажности воздуха и скорости ветра на теплоощущения человека.
Tes - Эффективная температура на солнце - температура, которую ощущает человек, с поправкой на солнечный нагрев. Характеристика знойности погоды. Зависит от высоты солнца над горизонтом, облачности и скорости ветра. Ночью, в пасмурную погоду, а также при ветре 12 м/с и более поправка равна нулю.
P - Атмосферное давление - приведенное к уровню моря атмосферное давление.
Po - Атмосферное давление - измеренное на уровне метеостанции атмосферное давление.
Tmin - Минимальная температура - минимум температуры воздуха на высоте 2 м над землей.
Tmax - Максимальная температура - максимум температуры воздуха на высоте 2 м над землей.
R - Количество осадков - Количество выпавших осадков за период времени, мм. При наведении курсора мыши на число - период времени, за который выпало указанное количество осадков.
R24 - Количество осадков - Количество выпавших осадков за 24 часа, мм.
S - Снежный покров - Высота снежного покрова, см. При наведении курсора мыши на число - состояние снежного покрова и степень покрытия местности в баллах.